sat.trackr.live / text

‹ back to catalog

STARLINK-5439

NORAD 54783 · 2022-175AB

PAYLOAD ACTIVE UNKNOWN

§ Identity

Operator
Country
US
Launch date
2022-12-17
Launch site
AFETR
Launch vehicle
Mass (kg)
RCS (m²)

Purposes: comms

External: N2YO · Heavens-Above · Gunter

§ Orbital elements

Epoch: 2026-09-20T12:28:19.880256Z

Period
94.01 min
Inclination
53.1596°
Eccentricity
0.0001255
Mean motion
15.31701649 rev/d
Perigee alt
469.9 km
Apogee alt
471.6 km
Semi-major
6,848.9 km
B*
2.6060e-5
RAAN
219.7204°
Arg perigee
95.7291°
Mean anomaly
264.3854°
Rev number
20,974

§ Raw data

STARLINK-54391 54783U 22175AB  26263.51967454  .00000444  00000+0  26060-4 0  99932 54783  53.1596 219.7204 0001255  95.7291 264.3854 15.31701649209740

JSON: /api/v1/satellites/54783 · /tle

For live sub-satellite position, see the globe view (requires WebGL).

§ Visibility from observer

Set your observer location to see the next 7 days of passes ≥ 10°. The values pass through the URL so the page stays shareable.

No JS? Fill the form by hand. The geolocation button needs JavaScript.